Regional Weather Roundup
Issued by NWS Kansas City/Pleasant Hill, MO

Home | Current Version | Previous Version | Graphics & Text | Print | Product List | Glossary Off
Versions: 1 2 3 4 5 6 7 8 9 10 11 12 13 14 15 16 17 18 19 20 21 22 23 24 25 26 27 28

000
ASUS43 KEAX 020110
RWREAX

WEATHER ROUNDUP FOR EASTERN KANSAS AND NORTHWEST MISSOURI
NATIONAL WEATHER SERVICE KANSAS CITY/PLEASANT HILL MO
800 PM CDT SUN MAY 01 2016

KSZ040-057-103>105-MOZ028-029-037-043-020200-
...KANSAS CITY METROPOLITAN AREA...

CITY           SKY/WX    TMP DP  RH WIND       PRES   REMARKS
K.C. INTL      CLOUDY    50  45  83 N10       30.09R
K.C. DOWNTOWN  CLOUDY    54  44  69 NW9       30.08R
LEES SUMMIT    CLOUDY    54  46  74 N12       30.07R
OLATHE - IXD   CLOUDY    52  45  77 N17       30.09R
OLATHE - OJC   CLOUDY    52  44  74 N10       30.07R
LAWRENCE       CLOUDY    51  45  79 N16       30.10R

$$

MOZ001>008-011>017-020>025-030>033-038>040-044>046-053-054-020200-
...NORTHERN AND CENTRAL MISSOURI...

CITY           SKY/WX    TMP DP  RH WIND       PRES   REMARKS
ST. JOSEPH     CLOUDY    51  44  77 N8        30.10R
MOSBY          CLOUDY    52  45  76 NW9       30.08R
WARRENSBURG    PTCLDY    54  46  76 NW6       30.05R
WHITEMAN AFB   CLOUDY    55  50  81 N8        30.04R
CLINTON        PTCLDY    55  48  76 NW7       30.05S
SEDALIA        MOCLDY    57  50  77 NW10      30.05R
WARSAW         NOT AVBL
CHILLICOTHE      N/A     52  45  77 VRB5      30.08R
KIRKSVILLE     CLOUDY    49  46  90 NW8       30.04S

$$

MOZ041-047>049-056>058-063>065-088>090-097-020200-
...EASTERN AND SOUTHERN MISSOURI...

CITY           SKY/WX    TMP DP  RH WIND       PRES   REMARKS
ST. LOUIS INTL PTCLDY    64  44  48 NW9       29.96R
SPIRIT OF STL  CLEAR     61  46  57 W5        29.96R
COLUMBIA       PTCLDY    57  48  72 NW13      30.02R
JEFFERSON CITY CLOUDY    61  46  57 NW10      30.01R
ROLLA          CLOUDY    59  45  59 W6        30.00R
OSAGE BEACH    CLOUDY    61  39  44 W3        30.02R
SPRINGFIELD    MOCLDY    59  43  55 W5        30.04R
BRANSON        PTCLDY    59  46  63 NW7       30.04R
JOPLIN         CLEAR     56  47  71 VRB3      30.04F
WEST PLAINS    CLEAR     63  46  54 NW8       30.00R

$$

IAZ060-094-KSZ022-034>040-054-083-096-NEZ052-066-093-020200-
...KANSAS...SOUTHEAST NEBRASKA AND IOWA...

CITY           SKY/WX    TMP DP  RH WIND       PRES   REMARKS
TOPEKA         CLOUDY    51  44  77 NW8       30.11R
MANHATTAN      CLOUDY    50  41  71 N8G16     30.13S
EMPORIA        PTCLDY    51  43  74 N8G18     30.08S
CHANUTE        CLOUDY    58  47  66 N10       30.04S
WICHITA        CLOUDY    52  42  69 N12       30.12R
OMAHA          MOCLDY    50  44  80 CALM      30.14R
LINCOLN        CLOUDY    50  42  74 N7        30.17R
FALLS CITY     CLOUDY    49  43  80 N7        30.12R
LAMONI         CLOUDY    47  44  90 N7        30.07S
DES MOINES     CLOUDY    50  44  80 NE6       30.08R

$$





USA.gov is the U.S. government's official web portal to all federal, state and local government web resources and services.